Regional Weather Roundup
Issued by NWS

Home | Current Version | Previous Version | Graphics & Text | Print | Product List | Glossary On
Versions: 1 2 3 4 5 6 7 8 9 10 11 12 13 14 15 16 17 18 19 20 21 22 23 24 25 26 27 28 29 30 31 32 33 34 35 36 37 38 39 40 41 42 43 44 45 46 47 48 49 50
000
ASUS43 KLSX 261507
RWRMO

WEATHER SUMMARY FOR MISSOURI
NATIONAL WEATHER SERVICE SPRINGFIELD MO
1000 AM CDT THU MAR 26 2015

NOTE: "FAIR" INDICATES FEW OR NO CLOUDS BELOW 12,000 FEET WITH NO
       SIGNIFICANT WEATHER AND/OR OBSTRUCTIONS TO VISIBILITY.
       CURRENT SKY AND/OR WEATHER CONDITIONS ARE NOT AVAILABLE FOR
       CHILLICOTHE AND FARMINGTON.

MOZ001>031-035>038-043-044-053-054-261600-
...NORTHERN AND WESTERN MISSOURI...

CITY           SKY/WX    TMP DP  RH WIND       PRES   REMARKS
KANSAS CTY INT MOSUNNY   39  30  70 N8        30.22S
KANSAS C DTWN  SUNNY     42  27  55 N12       30.22S
LEE`S SUMMIT   MOSUNNY   40  25  55 N15       30.21S
ST JOSEPH      SUNNY     40  30  67 N8        30.24S
CHILLICOTHE      N/A     40  26  57 N9        30.21S
KIRKSVILLE     SUNNY     39  27  62 N15       30.16S

$$
MOZ066>068-077>081-088>096-101>105-261600-
...SOUTHWEST MISSOURI...

CITY           SKY/WX    TMP DP  RH WIND       PRES   REMARKS
SPRINGFIELD    CLOUDY    40  35  83 N17       30.12S
JOPLIN         MOSUNNY   44  32  62 N15G22    30.17S

$$
MOZ032>034-039>042-045>050-055>058-069>072-261600-
...CENTRAL MISSOURI...

CITY           SKY/WX    TMP DP  RH WIND       PRES   REMARKS
COLUMBIA       PTSUNNY   39  30  70 N17       30.14S WCI  30
JEFFERSON CITY CLOUDY    39  28  64 N9G20     30.16R
ROLLA          CLOUDY    37  29  72 MISG      30.09R
SEDALIA        PTSUNNY   40  29  64 N20       30.18S
WHITEMAN AFB   MOSUNNY   40  30  67 N15       30.18S
WARRENSBURG    MOSUNNY   37  30  75 N13       30.20S WCI  29
OSAGE BEACH    CLOUDY    37  27  65 N8G18     30.15R

$$
MOZ051-052-059>065-261600-
...EAST CENTRAL MISSOURI...

CITY           SKY/WX    TMP DP  RH WIND       PRES   REMARKS
ST LOUIS INTL  CLOUDY    40  30  67 N16       30.09R
SPIRIT OF STL  CLOUDY    39  29  67 N12G21    30.10R
ST CHARLES     CLOUDY    38  29  70 N14       30.10R WCI  30

$$
MOZ072>076-082>087-097>100-106>115-261600-
...SOUTH CENTRAL AND SOUTHEAST MISSOURI...

CITY           SKY/WX    TMP DP  RH WIND       PRES   REMARKS
CAPE GIRARDEAU CLOUDY    44  42  93 N15       30.01R
FARMINGTON     CLOUDY    37  34  87 N12G17    30.08R WCI  30
POPLAR BLUFF   LGT RAIN  45  41  86 N16       30.00R FOG
WEST PLAINS    LGT RAIN  40  36  86 MISG      30.07R

$$



USA.gov is the U.S. government's official web portal to all federal, state and local government web resources and services.